SCP
0 0 0 0 0 0 0 0 0 0 0 0 0 0 0 0 0 0 0 0 0 0 0 0 0 0 0 0 0 0 0 0 0 0 0 0 0 0 0 0 0 0 0 0 0 0 0 0 0 0 0 0 0 0
0 0 0 0 0 0 0 0 0 0 0 0 0 0 0 0 0 0 0 0 0 0 0 0 0 0 0 0 0 0 0 0 0 0 0 0 0 0 0 0 0 0 0 0 0 0 0 0 0 0 0 0 0 0
0 0 0 0 0 0 0 0 0 0 0 0 0 0 0 0 0 0 0 0 0 0 0 0 0 0 0 0 0 0 0 0 0 0 0 0 0 0 0 0 0 0 0 0 0 0 0 0 0 0 0 0 0 0
0 0 0 0 0 0 0 0 0 0 0 0 0 0 0 0 0 0 0 0 0 0 0 0 0 0 0 0 0 0 0 0 0 0 0 0 0 0 0 0 0 0 0 0 0 0 0 0 0 0 0 0 0 0
0 0 0 0 0 0 0 0 0 0 0 0 0 0 0 0 0 0 0 0 0 0 0 0 0 0 0 0 0 0 0 0 0 0 0 0 0 0 0 0 0 0 0 0 0 0 0 0 0 0 0 0 0 0
0 0 0 0 0 0 0 0 0 0 0 0 0 0 0 0 0 0 0 0 0 0 0 0 0 0 0 0 0 0 0 0 0 0 0 0 0 0 0 0 0 0 0 0 0 0 0 0 0 0 0 0 0 0
0 0 0 0 0 0 0 0 0 0 0 0 0 0 0 0 0 0 0 0 0 0 0 0 0 0 0 0 0 0 0 0 0 0 0 0 0 0 0 0 0 0 0 0 0 0 0 0 0 0 0 0 0 0
0 0 0 0 0 0 0 0 0 0 0 0 0 0 0 0 0 0 0 0 0 0 0 0 0 0 0 0 0 0 0 0 0 0 0 0 0 0 0 0 0 0 0 0 0 0 0 0 0 0 0 0 0 0
0 0 0 0 0 0 0 0 0 0 0 0 0 0 0 0 0 0 0 0 0 0 0 0 0 0 0 0 0 0 0 0 0 0 0 0 0 0 0 0 0 0 0 0 0 0 0 0 0 0 0 0 0 0
0 0 0 0 0 0 0 0 0 0 0 0 0 0 0 0 0 0 0 0 0 0 0 0 0 0 0 0 0 0 0 0 0 0 0 0 0 0 0 0 0 0 0 0 0 0 0 0 0 0 0 0 0 0
0 0 0 0 0 0 0 0 0 0 0 0 0 0 0 0 0 0 0 0 0 0 0 0 0 0 0 0 0 0 0 0 0 0 0 0 0 0 0 0 0 0 0 0 0 0 0 0 0 0 0 0 0 0
0 0 0 0 0 0 0 0 0 0 0 0 0 0 0 0 0 0 0 0 0 0 0 0 0 0 0 0 0 0 0 0 0 0 0 0 0 0 0 0 0 0 0 0 0 0 0 0 0 0 0 0 0 0
0 0 0 0 0 0 0 0 0 0 0 0 0 0 0 0 0 0 0 0 0 0 0 0 0 0 0 0 0 0 0 0 0 0 0 0 0 0 0 0 0 0 0 0 0 0 0 0 0 0 0 0 0 0
0 0 0 0 0 0 0 0 0 0 0 0 0 0 0 0 0 0 0 0 0 0 0 0 0 0 0 0 0 0 0 0 0 0 0 0 0 0 0 0 -0 0 0 0 0 0 0 0 -0 0 0 0 0 0
0 0 0 0 0 0 0 0 0 0 0 0 0 0 0 0 0 0 0 0 0 0 0 0 0 0 0 0 0 0 0 0 0 0 0 0 0 -0 0 0 0 0 0 0 0 0 0 0 0 0 0 0 0 0
0 0 0 0 0 0 0 0 0 0 0 0 0 0 0 0 0 0 0 0 0 0 0 0 0 0 0 0 0 0 0 0 0 0 0 0 0 -0 -0 -0 0 0 0 0 0 0 0 0 0 0 0 0 0 0
0 0 0 0 0 0 0 0 0 0 0 0 0 0 0 0 0 0 0 0 0 0 0 0 0 0 0 0 0 0 0 0 0 0 0 0 0 -0 -0 -0 -0 0 0 0 0 0 0 0 0 0 0 0 0 0
0 0 0 0 0 0 0 0 0 0 0 0 0 0 0 0 0 0 0 0 0 0 0 0 0 0 0 0 0 0 0 0 0 0 0 0 0 0 -0 -0 -0 0 0 0 0 -0 0 0 0 0 0 0 0 0
0 0 0 -0 0 0 0 0 0 0 0 0 0 0 0 0 0 0 0 0 0 0 0 0 0 0 0 0 0 0 0 0 0 0 0 0 0 0 0 -0 0 -0 0 0 0 0 0 0 0 0 0 0 0 0
0 0 -0 -0 0 0 0 0 0 0 0 0 0 0 0 0 0 0 0 0 0 0 0 0 0 0 0 0 0 0 0 0 0 0 -0 -0 0 0 0 0 -0 0 0 0 0 0 0 0 0 0 0 0 0 0
0 0 0 0 0 0 0 0 0 0 0 0 0 0 0 0 0 0 0 0 0 0 0 0 0 0 0 0 0 0 0 0 0 0 0 -0 0 0 0 0 -0 0 0 0 0 0 0 0 0 0 -0 0 0 0
0 0 0 0 0 0 0 0 0 0 0 0 0 0 0 0 0 0 0 0 0 0 0 0 0 0 0 0 0 0 0 0 -0 -0 -0 -0 -0 -0 0 0 0 0 -0 0 0 0 -0 0 0 0 -0 -0 0 0
0 0 0 0 0 0 0 0 0 0 0 0 0 0 0 0 0 0 0 0 0 0 0 0 0 0 0 0 0 0 0 0 0 -0 -0 -0 -0 -0 -0 -0 -0 0 -0 0 0 0 0 0 -0 -0 -0 0 0 0
0 0 0 0 0 0 0 0 0 0 0 0 0 0 0 0 0 0 0 0 0 0 0 0 0 0 0 0 0 0 0 0 0 0 -0 -0 -0 -0 -0 -0 -0 -0 0 0 0 0 0 0 -0 -0 -0 -0 0 0
0 0 0 -0 -0 -0 0 0 0 -0 0 -0 0 0 0 -0 0 0 0 0 0 0 0 0 0 0 -0 -0 0 0 0 0 0 -0 -0 -0 -0 -0 -0 -0 0 0 0 0 0 0 -0 -0 -0 -0 0 -0 0 0
-0 0 -0 -0 0 0 -0 -0 -0 0 0 0 0 0 0 0 0 0 0 0 -0 -0 -0 -0 -0 0 0 0 0 0 0 0 0 -0 0 0 0 -0 0 -0 0 0 0 -0 0 0 -0 -0 -0 0 0 0 0 0
0 0 0 -0 0 0 0 -0 -0 0 0 0 0 0 0 0 0 0 0 0 -0 -0 0 -0 -0 0 0 0 0 0 0 0 -0 0 0 0 -0 -0 -0 -0 0 0 -0 0 0 -0 0 -0 -0 0 0 0 0 0
0 0 0 0 0 0 -0 -0 -0 0 0 0 0 0 0 0 0 0 0 -0 0 -0 -0 -0 0 0 0 0 0 0 0 0 0 0 -0 -0 -0 -0 -0 -0 0 0 0 0 0 0 -0 0 0 -0 0 0 0 0
0 0 0 0 0 0 -0 -0 0 0 0 0 0 0 0 0 0 0 0 -0 -0 -0 -0 0 0 0 0 0 0 0 0 -0 -0 -0 -0 -0 -0 -0 0 -0 0 0 0 0 0 0 0 0 0 -0 -0 -0 -0 0
0 0 0 0 0 0 0 0 0 0 0 0 0 0 0 0 0 0 0 -0 -0 -0 0 0 0 0 0 0 0 0 0 0 -0 -0 -0 -0 -0 0 0 0 0 0 0 0 0 -0 -0 0 0 0 0 0 0 0
0 0 0 0 -0 -0 -0 0 0 0 0 0 0 0 0 0 0 0 0 -0 -0 0 0 0 0 0 0 0 0 0 0 0 0 0 0 0 0 0 0 0 0 0 0 0 0 0 0 0 0 0 0 0 -0 -0
0 0 0 0 0 0 0 0 0 0 0 0 0 0 0 0 0 0 0 -0 -0 -0 0 0 0 0 0 0 0 0 0 0 0 0 0 0 0 0 0 0 0 0 0 0 0 0 0 0 0 0 0 -0 -0 -0
0 0 0 -0 -0 -0 0 0 0 0 0 0 0 0 0 0 0 0 0 0 0 -0 0 0 0 0 0 0 0 0 0 0 0 0 0 0 0 0 0 0 0 0 0 0 0 0 0 0 0 0 0 -0 -0 0
Wind_Speed_500mb
20 21 24 24 23 21 20 18 16 14 12 11 10 8 4 3 3 8 9 9 9 5 8 8 10 8 4 1 3 7 3 5 1 6 6 7 9 12 8 8 13 17 16 9 6 9 17 21 15 14 9 8 12 19
21 18 21 21 21 21 20 19 16 13 12 11 11 10 7 3 2 4 11 13 12 11 9 8 17 26 20 15 5 6 2 3 4 3 1 2 5 6 7 12 2 10 12 8 18 11 2 33 16 30 16 18 17 19
21 20 20 18 22 21 20 20 18 15 13 12 12 11 8 4 4 4 7 10 10 9 17 25 26 35 36 33 27 8 4 3 5 9 2 2 7 3 8 11 10 9 8 7 7 15 33 31 31 35 34 39 31 29
22 22 19 19 19 18 18 18 17 16 16 15 15 13 11 6 3 3 3 2 7 3 4 6 9 11 13 16 21 35 29 12 4 14 6 4 5 7 3 5 7 2 19 12 9 21 16 21 28 17 22 29 35 39
26 23 21 20 18 17 14 14 14 13 13 14 14 13 15 11 6 4 6 8 9 4 3 13 24 8 17 26 22 22 22 29 16 8 10 7 6 5 4 3 12 11 9 9 15 23 16 20 18 23 33 37 43 47
19 21 23 23 19 17 16 15 13 12 10 9 10 13 13 10 8 6 5 8 11 10 4 5 10 5 8 5 19 30 39 39 23 13 13 12 22 7 8 16 25 32 44 46 22 26 21 34 51 48 40 43 45 42
22 19 17 16 14 14 15 14 13 13 10 9 7 7 11 9 9 7 5 15 14 14 2 11 12 5 9 1 6 18 34 25 23 16 14 22 17 16 9 30 41 45 47 57 61 40 50 45 45 45 45 48 52 39
28 26 24 24 21 18 15 12 12 10 10 9 9 7 6 6 8 14 15 18 14 8 5 4 7 9 3 4 0 3 7 17 16 17 6 13 13 18 16 30 26 38 56 65 63 67 67 63 56 63 65 63 54 39
26 22 24 26 25 23 20 17 13 9 10 8 5 3 6 9 9 11 16 25 20 6 9 7 4 2 9 7 5 2 5 8 7 10 14 15 14 17 14 22 29 39 45 57 54 53 48 54 64 54 46 50 54 45
30 22 22 23 23 23 20 16 14 11 10 7 3 5 7 8 24 15 4 10 13 11 11 10 8 3 8 13 5 11 3 5 5 8 5 9 21 39 41 50 51 43 45 52 61 62 59 56 57 68 49 49 53 38
26 24 19 18 22 23 19 16 14 11 10 7 6 5 18 19 8 5 4 6 8 7 11 8 14 18 7 6 5 5 5 4 5 4 5 4 3 8 29 28 24 21 29 36 37 45 51 59 65 55 54 44 51 65
22 20 18 18 20 23 22 15 10 14 12 11 11 16 15 7 6 6 5 5 8 6 11 8 8 13 7 10 9 7 6 4 9 2 4 5 6 20 31 32 32 35 38 42 44 41 45 46 47 55 58 55 49 54
34 29 22 17 18 28 21 14 13 17 16 14 6 6 5 4 6 9 11 7 6 10 10 8 6 8 11 13 9 6 7 9 3 5 5 3 15 35 43 45 50 50 45 47 51 51 41 35 34 39 44 46 44 45
26 24 22 17 18 25 20 14 14 21 10 5 6 7 6 6 8 7 3 3 4 7 3 5 6 10 11 11 10 8 8 4 5 7 6 5 29 39 47 48 47 57 54 48 50 60 45 34 32 30 37 42 38 36
26 25 21 20 24 24 26 20 20 23 6 4 5 6 9 8 3 2 3 0 2 3 6 3 8 4 6 7 8 5 7 9 10 5 2 18 32 35 42 48 50 53 53 51 52 64 49 32 26 29 36 36 30 47
19 20 22 26 28 24 23 24 22 18 1 4 7 5 9 4 12 13 9 8 4 3 5 6 5 5 10 7 9 14 6 10 7 3 14 24 29 38 44 49 54 59 58 55 60 68 51 38 23 25 33 32 42 65
22 16 22 27 30 25 27 30 16 10 8 6 7 13 12 7 9 4 7 2 2 5 0 2 7 9 4 8 8 6 5 6 8 12 18 29 43 53 59 59 60 63 68 51 64 56 36 35 16 16 22 41 66 59
17 19 23 31 35 31 32 16 10 7 9 15 10 12 17 19 17 23 24 16 8 9 4 6 5 7 8 8 7 5 6 3 8 18 27 40 48 53 57 56 62 63 67 58 49 39 26 22 19 23 35 65 65 53
20 21 23 36 39 28 7 12 8 6 15 11 21 30 27 26 42 42 34 34 31 23 7 8 13 10 15 13 25 26 20 12 24 35 44 44 51 59 65 63 66 70 59 54 38 18 16 22 27 33 69 62 54 52
21 20 25 35 34 13 8 6 9 4 7 9 16 19 17 23 29 32 33 29 34 14 19 13 21 38 31 30 32 38 38 35 38 53 65 43 47 66 70 70 70 70 57 40 22 17 24 33 40 64 68 63 40 45
25 22 42 48 33 9 6 7 9 8 9 12 13 13 14 21 23 25 28 31 25 24 28 56 65 67 63 69 78 75 76 82 79 59 65 71 58 71 72 63 64 67 46 28 18 18 18 29 48 64 63 49 47 41
23 29 23 23 6 10 6 10 7 6 8 13 14 15 17 19 26 27 29 28 27 57 60 60 61 62 65 72 85 84 82 89 81 81 82 71 62 62 64 66 58 66 35 23 19 16 36 53 44 45 44 45 43 35
19 22 10 10 5 5 2 5 7 8 8 7 6 8 11 11 14 17 15 27 41 59 67 76 87 84 78 79 74 75 69 67 72 77 76 51 59 59 56 56 47 48 28 22 16 43 53 46 47 47 43 43 40 32
10 14 6 6 8 3 5 8 10 9 10 9 7 9 9 12 10 13 14 36 57 52 58 70 65 64 60 61 61 57 61 64 71 74 69 55 56 54 49 44 37 26 16 31 46 45 47 36 29 39 45 42 37 26
5 5 5 6 8 7 9 8 9 10 9 10 8 11 10 13 8 11 27 53 51 45 45 53 54 59 62 59 56 65 57 59 65 64 55 49 48 43 35 38 24 28 27 23 30 39 48 31 18 38 43 41 35 26
4 11 14 15 10 10 8 6 9 11 8 8 12 12 8 8 10 15 8 12 19 19 16 19 31 46 60 67 61 57 55 54 48 53 43 39 39 37 35 27 25 33 38 32 34 29 34 29 30 43 45 41 32 21
6 8 14 15 9 8 11 17 21 16 9 9 7 6 7 10 13 7 10 22 41 45 42 38 30 34 43 40 48 48 44 42 43 35 30 32 30 27 29 32 32 32 38 53 39 34 31 31 32 43 45 40 30 18
11 8 10 7 12 16 10 11 8 8 8 11 8 7 7 7 5 9 32 45 49 40 18 16 14 11 13 19 19 22 25 30 32 34 36 34 28 23 20 18 26 26 59 40 19 16 13 17 31 44 44 38 30 19
12 10 9 13 13 14 14 13 12 11 18 10 7 6 10 16 34 48 44 56 36 19 14 8 12 6 5 12 16 18 18 21 27 29 30 27 26 27 25 24 34 38 45 36 21 23 17 21 33 40 38 32 24 16
10 16 8 8 8 8 12 17 29 43 45 46 35 23 37 44 31 41 46 57 50 10 13 17 8 4 7 13 14 13 11 14 19 21 23 32 33 23 22 25 41 53 44 27 22 23 24 27 33 37 38 31 23 21
7 9 9 13 12 24 33 32 36 39 36 27 25 34 36 28 30 52 69 76 47 15 9 10 13 10 12 17 17 13 12 11 9 14 22 30 42 51 41 35 41 37 36 31 23 28 34 37 39 37 31 25 25 26
11 16 8 7 10 17 26 15 11 9 12 14 11 23 29 19 23 56 86 85 69 45 25 15 6 10 16 18 19 14 30 46 54 43 44 53 55 48 41 36 33 30 26 28 29 32 34 36 35 30 27 26 31 27
12 15 15 13 9 5 8 10 6 7 9 13 15 28 30 25 18 45 74 75 67 48 25 22 22 28 24 29 25 32 55 66 33 29 34 36 38 36 33 31 30 30 31 33 35 35 31 29 29 22 22 27 26 22
Wind_Direction_500mb
245 232 229 229 229 226 229 232 236 242 249 256 267 279 299 356 291 227 209 205 200 230 225 196 209 212 194 75 301 346 265 55 294 223 232 192 213 200 183 167 179 188 172 191 173 223 262 171 136 197 217 245 251 230
231 232 239 232 217 217 220 225 230 232 240 250 261 267 274 274 276 245 240 226 223 233 249 220 228 237 243 253 292 327 11 326 24 281 167 304 214 180 216 227 176 206 207 192 195 216 216 192 218 220 268 278 269 257
222 222 242 237 218 211 213 219 223 228 234 243 253 263 269 267 263 259 248 241 221 257 275 270 259 245 247 249 240 222 260 216 85 61 359 325 260 181 217 230 216 220 170 212 160 234 244 240 235 255 270 271 270 268
222 231 227 225 225 225 224 226 223 228 234 238 243 248 253 249 239 257 261 190 175 161 298 267 242 235 244 241 234 226 221 185 242 320 313 271 261 200 257 323 267 318 165 189 238 269 268 259 238 254 293 291 270 269
233 230 212 217 213 216 221 223 229 235 236 238 237 239 243 234 216 199 219 210 195 161 260 284 295 292 242 238 231 224 224 233 238 237 216 234 241 202 204 260 246 201 204 207 248 248 226 237 244 294 296 297 294 277
213 207 206 216 225 221 219 222 224 230 236 232 235 230 236 228 208 180 185 224 161 144 324 309 315 37 47 273 238 233 229 234 221 205 223 233 240 234 254 261 249 246 253 265 270 301 286 274 292 297 287 294 292 276
203 197 196 204 213 214 210 213 218 222 227 227 231 223 229 223 195 173 158 147 121 137 221 307 327 299 328 360 203 216 216 214 214 224 228 243 239 202 246 251 252 253 262 273 276 281 285 282 281 287 288 293 280 267
211 217 220 221 219 217 204 212 216 220 222 234 240 251 238 202 165 176 149 144 143 135 145 299 280 303 328 310 158 189 187 202 225 230 227 226 222 213 249 266 272 260 257 263 268 274 277 288 285 283 281 274 263 240
211 219 218 215 211 209 205 209 219 221 224 234 262 278 134 142 134 152 171 183 187 169 139 234 256 254 351 21 304 285 202 216 213 232 225 214 221 225 258 287 266 255 257 269 276 275 273 281 288 289 281 271 242 228
199 208 211 208 209 208 208 205 215 221 216 213 173 137 118 128 130 126 89 156 173 199 203 236 254 262 7 5 6 343 248 266 240 200 193 231 247 258 278 281 281 290 293 295 288 281 275 268 266 274 279 262 246 238
193 186 196 204 206 198 188 193 212 205 187 163 139 102 123 127 119 149 178 179 171 201 207 217 222 240 266 249 256 275 303 260 265 136 245 237 234 13 340 342 341 315 316 320 307 282 273 267 264 261 260 276 257 250
190 193 194 202 198 187 180 194 210 180 164 156 135 122 136 150 174 196 204 167 205 215 183 192 206 201 222 209 226 226 252 215 251 356 248 268 118 347 345 342 338 331 324 327 336 314 288 271 263 261 256 253 270 252
189 181 169 173 173 174 176 178 181 167 147 136 123 139 139 167 197 206 191 198 195 173 169 187 188 198 193 199 229 244 228 236 315 224 234 258 352 348 346 342 338 341 330 330 336 339 312 275 258 254 245 240 256 240
179 171 172 170 170 174 177 161 170 163 158 145 153 169 211 185 233 202 224 78 107 140 141 233 240 208 190 183 226 229 219 241 236 222 230 100 347 340 345 345 334 335 331 323 326 334 328 290 261 250 238 238 238 215
168 166 168 175 179 175 179 167 169 174 164 157 164 210 216 233 258 138 60 219 159 182 360 267 253 220 204 241 214 239 210 225 205 219 341 335 338 337 335 335 335 334 328 321 323 333 335 317 281 264 230 232 210 186
167 181 190 189 187 182 176 167 166 172 185 201 223 243 238 282 246 263 265 263 194 358 312 211 250 237 229 230 207 216 215 206 168 91 333 330 333 337 335 337 337 335 329 319 318 328 329 329 300 268 235 206 186 175
180 179 179 177 175 174 176 162 149 185 203 226 244 241 243 282 255 239 178 260 226 312 266 56 235 229 323 228 224 216 231 107 50 338 326 341 346 345 341 337 336 333 330 319 302 312 294 296 279 254 213 186 168 167
166 156 159 165 166 172 161 157 167 186 234 234 243 245 233 233 230 244 254 256 210 186 183 252 293 238 230 232 204 217 165 121 339 341 338 344 345 340 336 330 332 329 325 318 313 302 266 228 208 178 180 173 157 156
170 168 168 179 178 166 141 168 183 228 239 247 250 253 252 254 255 259 260 259 248 243 259 230 239 232 230 253 284 290 288 290 314 318 317 324 335 338 334 333 331 334 327 326 316 293 241 195 177 179 161 166 162 163
163 168 175 180 187 166 146 159 197 241 250 245 248 246 239 248 266 267 266 251 244 214 212 222 235 237 236 246 256 269 276 281 287 307 303 308 317 326 328 330 332 337 326 325 311 271 205 187 176 165 171 165 164 165
159 163 164 166 180 180 182 179 218 235 263 253 278 249 256 254 253 253 254 236 211 222 233 235 240 244 246 246 254 256 264 270 273 278 284 293 301 308 314 321 327 332 320 305 263 245 212 163 157 163 169 164 168 160
141 177 162 179 145 189 246 214 233 271 252 263 276 242 250 243 245 240 239 211 237 238 237 244 246 246 246 248 257 261 259 264 269 274 277 284 290 300 305 312 320 324 305 289 263 210 152 148 153 158 170 177 167 164
151 163 152 169 170 202 244 224 228 230 247 236 237 243 238 236 234 237 226 229 244 244 240 246 253 252 245 252 258 259 259 257 263 266 270 270 287 291 295 302 314 308 281 255 227 181 152 155 167 177 181 171 174 170
134 165 153 169 193 241 219 224 226 242 243 244 235 250 247 232 235 229 246 252 256 257 246 246 246 245 248 249 248 247 250 250 255 261 263 272 281 283 291 291 308 293 240 193 163 164 165 173 172 180 177 179 177 174
146 181 171 199 205 225 225 228 216 224 250 224 238 255 245 215 233 255 267 276 278 272 258 247 244 240 238 243 244 251 253 242 248 257 262 268 275 280 273 284 283 225 190 194 176 182 180 204 202 186 184 185 182 178
223 201 198 202 207 213 215 245 226 228 235 245 240 250 256 243 239 253 256 288 305 307 320 292 261 249 242 240 240 243 243 248 252 257 259 257 268 266 275 262 260 234 208 184 189 211 191 200 205 194 190 187 185 186
251 231 221 221 227 236 263 258 264 265 260 254 244 243 238 238 236 257 309 329 321 310 287 295 301 275 250 245 245 247 248 243 243 250 256 266 262 256 253 254 250 226 189 176 199 224 239 242 214 195 192 188 187 186
245 256 224 202 217 234 257 271 261 239 230 250 261 251 270 264 266 282 309 329 324 326 296 284 314 320 242 234 232 225 229 234 238 242 249 251 253 252 230 213 224 192 188 209 215 243 238 204 207 199 194 191 186 188
230 234 221 260 247 240 232 229 242 253 269 252 261 252 268 265 284 303 324 334 337 318 291 279 332 318 169 166 167 167 180 202 212 214 230 239 239 226 217 217 204 183 183 194 218 198 210 195 197 195 188 185 184 175
246 218 226 252 245 242 240 245 268 284 291 287 278 284 308 298 326 345 340 344 354 330 237 216 239 237 190 179 171 169 186 201 213 230 242 237 232 206 184 167 181 180 189 204 169 155 163 173 176 176 178 178 179 180
243 205 229 234 250 258 283 290 289 298 298 300 311 301 313 314 319 347 1 14 33 91 109 145 163 162 171 167 167 167 137 132 166 145 130 130 135 145 156 156 143 138 138 161 188 177 173 169 168 171 177 182 178 166
209 211 236 253 262 292 300 288 288 283 298 322 308 344 343 325 335 358 20 23 29 50 77 95 121 144 159 158 170 168 143 134 128 122 116 117 118 125 135 151 166 174 171 165 165 164 163 165 166 171 169 174 169 168
217 236 241 278 273 277 293 287 284 325 329 340 343 6 6 353 352 357 19 26 27 46 77 96 131 140 150 152 149 141 142 138 122 103 117 121 118 117 120 126 132 138 143 145 146 148 153 157 157 158 161 168 174 180
Wind_Speed_850mb
20 21 24 24 23 21 20 18 16 14 12 11 10 8 4 3 3 8 9 9 9 5 8 8 10 8 4 1 3 7 3 5 1 6 6 7 9 12 8 8 13 17 16 9 6 9 17 21 15 14 9 8 12 19
21 18 21 21 21 21 20 19 16 13 12 11 11 10 7 3 2 4 11 13 12 11 9 8 17 26 20 15 5 6 2 3 4 3 1 2 5 6 7 12 2 10 12 8 18 11 2 33 16 30 16 18 17 19
21 20 20 18 22 21 20 20 18 15 13 12 12 11 8 4 4 4 7 10 10 9 17 25 26 35 36 33 27 8 4 3 5 9 2 2 7 3 8 11 10 9 8 7 7 15 33 31 31 35 34 39 31 29
22 22 19 19 19 18 18 18 17 16 16 15 15 13 11 6 3 3 3 2 7 3 4 6 9 11 13 16 21 35 29 12 4 14 6 4 5 7 3 5 7 2 19 12 9 21 16 21 28 17 22 29 35 39
26 23 21 20 18 17 14 14 14 13 13 14 14 13 15 11 6 4 6 8 9 4 3 13 24 8 17 26 22 22 22 29 16 8 10 7 6 5 4 3 12 11 9 9 15 23 16 20 18 23 33 37 43 47
19 21 23 23 19 17 16 15 13 12 10 9 10 13 13 10 8 6 5 8 11 10 4 5 10 5 8 5 19 30 39 39 23 13 13 12 22 7 8 16 25 32 44 46 22 26 21 34 51 48 40 43 45 42
22 19 17 16 14 14 15 14 13 13 10 9 7 7 11 9 9 7 5 15 14 14 2 11 12 5 9 1 6 18 34 25 23 16 14 22 17 16 9 30 41 45 47 57 61 40 50 45 45 45 45 48 52 39
28 26 24 24 21 18 15 12 12 10 10 9 9 7 6 6 8 14 15 18 14 8 5 4 7 9 3 4 0 3 7 17 16 17 6 13 13 18 16 30 26 38 56 65 63 67 67 63 56 63 65 63 54 39
26 22 24 26 25 23 20 17 13 9 10 8 5 3 6 9 9 11 16 25 20 6 9 7 4 2 9 7 5 2 5 8 7 10 14 15 14 17 14 22 29 39 45 57 54 53 48 54 64 54 46 50 54 45
30 22 22 23 23 23 20 16 14 11 10 7 3 5 7 8 24 15 4 10 13 11 11 10 8 3 8 13 5 11 3 5 5 8 5 9 21 39 41 50 51 43 45 52 61 62 59 56 57 68 49 49 53 38
26 24 19 18 22 23 19 16 14 11 10 7 6 5 18 19 8 5 4 6 8 7 11 8 14 18 7 6 5 5 5 4 5 4 5 4 3 8 29 28 24 21 29 36 37 45 51 59 65 55 54 44 51 65
22 20 18 18 20 23 22 15 10 14 12 11 11 16 15 7 6 6 5 5 8 6 11 8 8 13 7 10 9 7 6 4 9 2 4 5 6 20 31 32 32 35 38 42 44 41 45 46 47 55 58 55 49 54
34 29 22 17 18 28 21 14 13 17 16 14 6 6 5 4 6 9 11 7 6 10 10 8 6 8 11 13 9 6 7 9 3 5 5 3 15 35 43 45 50 50 45 47 51 51 41 35 34 39 44 46 44 45
26 24 22 17 18 25 20 14 14 21 10 5 6 7 6 6 8 7 3 3 4 7 3 5 6 10 11 11 10 8 8 4 5 7 6 5 29 39 47 48 47 57 54 48 50 60 45 34 32 30 37 42 38 36
26 25 21 20 24 24 26 20 20 23 6 4 5 6 9 8 3 2 3 0 2 3 6 3 8 4 6 7 8 5 7 9 10 5 2 18 32 35 42 48 50 53 53 51 52 64 49 32 26 29 36 36 30 47
19 20 22 26 28 24 23 24 22 18 1 4 7 5 9 4 12 13 9 8 4 3 5 6 5 5 10 7 9 14 6 10 7 3 14 24 29 38 44 49 54 59 58 55 60 68 51 38 23 25 33 32 42 65
22 16 22 27 30 25 27 30 16 10 8 6 7 13 12 7 9 4 7 2 2 5 0 2 7 9 4 8 8 6 5 6 8 12 18 29 43 53 59 59 60 63 68 51 64 56 36 35 16 16 22 41 66 59
17 19 23 31 35 31 32 16 10 7 9 15 10 12 17 19 17 23 24 16 8 9 4 6 5 7 8 8 7 5 6 3 8 18 27 40 48 53 57 56 62 63 67 58 49 39 26 22 19 23 35 65 65 53
20 21 23 36 39 28 7 12 8 6 15 11 21 30 27 26 42 42 34 34 31 23 7 8 13 10 15 13 25 26 20 12 24 35 44 44 51 59 65 63 66 70 59 54 38 18 16 22 27 33 69 62 54 52
21 20 25 35 34 13 8 6 9 4 7 9 16 19 17 23 29 32 33 29 34 14 19 13 21 38 31 30 32 38 38 35 38 53 65 43 47 66 70 70 70 70 57 40 22 17 24 33 40 64 68 63 40 45
25 22 42 48 33 9 6 7 9 8 9 12 13 13 14 21 23 25 28 31 25 24 28 56 65 67 63 69 78 75 76 82 79 59 65 71 58 71 72 63 64 67 46 28 18 18 18 29 48 64 63 49 47 41
23 29 23 23 6 10 6 10 7 6 8 13 14 15 17 19 26 27 29 28 27 57 60 60 61 62 65 72 85 84 82 89 81 81 82 71 62 62 64 66 58 66 35 23 19 16 36 53 44 45 44 45 43 35
19 22 10 10 5 5 2 5 7 8 8 7 6 8 11 11 14 17 15 27 41 59 67 76 87 84 78 79 74 75 69 67 72 77 76 51 59 59 56 56 47 48 28 22 16 43 53 46 47 47 43 43 40 32
10 14 6 6 8 3 5 8 10 9 10 9 7 9 9 12 10 13 14 36 57 52 58 70 65 64 60 61 61 57 61 64 71 74 69 55 56 54 49 44 37 26 16 31 46 45 47 36 29 39 45 42 37 26
5 5 5 6 8 7 9 8 9 10 9 10 8 11 10 13 8 11 27 53 51 45 45 53 54 59 62 59 56 65 57 59 65 64 55 49 48 43 35 38 24 28 27 23 30 39 48 31 18 38 43 41 35 26
4 11 14 15 10 10 8 6 9 11 8 8 12 12 8 8 10 15 8 12 19 19 16 19 31 46 60 67 61 57 55 54 48 53 43 39 39 37 35 27 25 33 38 32 34 29 34 29 30 43 45 41 32 21
6 8 14 15 9 8 11 17 21 16 9 9 7 6 7 10 13 7 10 22 41 45 42 38 30 34 43 40 48 48 44 42 43 35 30 32 30 27 29 32 32 32 38 53 39 34 31 31 32 43 45 40 30 18
11 8 10 7 12 16 10 11 8 8 8 11 8 7 7 7 5 9 32 45 49 40 18 16 14 11 13 19 19 22 25 30 32 34 36 34 28 23 20 18 26 26 59 40 19 16 13 17 31 44 44 38 30 19
12 10 9 13 13 14 14 13 12 11 18 10 7 6 10 16 34 48 44 56 36 19 14 8 12 6 5 12 16 18 18 21 27 29 30 27 26 27 25 24 34 38 45 36 21 23 17 21 33 40 38 32 24 16
10 16 8 8 8 8 12 17 29 43 45 46 35 23 37 44 31 41 46 57 50 10 13 17 8 4 7 13 14 13 11 14 19 21 23 32 33 23 22 25 41 53 44 27 22 23 24 27 33 37 38 31 23 21
7 9 9 13 12 24 33 32 36 39 36 27 25 34 36 28 30 52 69 76 47 15 9 10 13 10 12 17 17 13 12 11 9 14 22 30 42 51 41 35 41 37 36 31 23 28 34 37 39 37 31 25 25 26
11 16 8 7 10 17 26 15 11 9 12 14 11 23 29 19 23 56 86 85 69 45 25 15 6 10 16 18 19 14 30 46 54 43 44 53 55 48 41 36 33 30 26 28 29 32 34 36 35 30 27 26 31 27
12 15 15 13 9 5 8 10 6 7 9 13 15 28 30 25 18 45 74 75 67 48 25 22 22 28 24 29 25 32 55 66 33 29 34 36 38 36 33 31 30 30 31 33 35 35 31 29 29 22 22 27 26 22
Wind_Direction_850mb
245 232 229 229 229 226 229 232 236 242 249 256 267 279 299 356 291 227 209 205 200 230 225 196 209 212 194 75 301 346 265 55 294 223 232 192 213 200 183 167 179 188 172 191 173 223 262 171 136 197 217 245 251 230
231 232 239 232 217 217 220 225 230 232 240 250 261 267 274 274 276 245 240 226 223 233 249 220 228 237 243 253 292 327 11 326 24 281 167 304 214 180 216 227 176 206 207 192 195 216 216 192 218 220 268 278 269 257
222 222 242 237 218 211 213 219 223 228 234 243 253 263 269 267 263 259 248 241 221 257 275 270 259 245 247 249 240 222 260 216 85 61 359 325 260 181 217 230 216 220 170 212 160 234 244 240 235 255 270 271 270 268
222 231 227 225 225 225 224 226 223 228 234 238 243 248 253 249 239 257 261 190 175 161 298 267 242 235 244 241 234 226 221 185 242 320 313 271 261 200 257 323 267 318 165 189 238 269 268 259 238 254 293 291 270 269
233 230 212 217 213 216 221 223 229 235 236 238 237 239 243 234 216 199 219 210 195 161 260 284 295 292 242 238 231 224 224 233 238 237 216 234 241 202 204 260 246 201 204 207 248 248 226 237 244 294 296 297 294 277
213 207 206 216 225 221 219 222 224 230 236 232 235 230 236 228 208 180 185 224 161 144 324 309 315 37 47 273 238 233 229 234 221 205 223 233 240 234 254 261 249 246 253 265 270 301 286 274 292 297 287 294 292 276
203 197 196 204 213 214 210 213 218 222 227 227 231 223 229 223 195 173 158 147 121 137 221 307 327 299 328 360 203 216 216 214 214 224 228 243 239 202 246 251 252 253 262 273 276 281 285 282 281 287 288 293 280 267
211 217 220 221 219 217 204 212 216 220 222 234 240 251 238 202 165 176 149 144 143 135 145 299 280 303 328 310 158 189 187 202 225 230 227 226 222 213 249 266 272 260 257 263 268 274 277 288 285 283 281 274 263 240
211 219 218 215 211 209 205 209 219 221 224 234 262 278 134 142 134 152 171 183 187 169 139 234 256 254 351 21 304 285 202 216 213 232 225 214 221 225 258 287 266 255 257 269 276 275 273 281 288 289 281 271 242 228
199 208 211 208 209 208 208 205 215 221 216 213 173 137 118 128 130 126 89 156 173 199 203 236 254 262 7 5 6 343 248 266 240 200 193 231 247 258 278 281 281 290 293 295 288 281 275 268 266 274 279 262 246 238
193 186 196 204 206 198 188 193 212 205 187 163 139 102 123 127 119 149 178 179 171 201 207 217 222 240 266 249 256 275 303 260 265 136 245 237 234 13 340 342 341 315 316 320 307 282 273 267 264 261 260 276 257 250
190 193 194 202 198 187 180 194 210 180 164 156 135 122 136 150 174 196 204 167 205 215 183 192 206 201 222 209 226 226 252 215 251 356 248 268 118 347 345 342 338 331 324 327 336 314 288 271 263 261 256 253 270 252
189 181 169 173 173 174 176 178 181 167 147 136 123 139 139 167 197 206 191 198 195 173 169 187 188 198 193 199 229 244 228 236 315 224 234 258 352 348 346 342 338 341 330 330 336 339 312 275 258 254 245 240 256 240
179 171 172 170 170 174 177 161 170 163 158 145 153 169 211 185 233 202 224 78 107 140 141 233 240 208 190 183 226 229 219 241 236 222 230 100 347 340 345 345 334 335 331 323 326 334 328 290 261 250 238 238 238 215
168 166 168 175 179 175 179 167 169 174 164 157 164 210 216 233 258 138 60 219 159 182 360 267 253 220 204 241 214 239 210 225 205 219 341 335 338 337 335 335 335 334 328 321 323 333 335 317 281 264 230 232 210 186
167 181 190 189 187 182 176 167 166 172 185 201 223 243 238 282 246 263 265 263 194 358 312 211 250 237 229 230 207 216 215 206 168 91 333 330 333 337 335 337 337 335 329 319 318 328 329 329 300 268 235 206 186 175
180 179 179 177 175 174 176 162 149 185 203 226 244 241 243 282 255 239 178 260 226 312 266 56 235 229 323 228 224 216 231 107 50 338 326 341 346 345 341 337 336 333 330 319 302 312 294 296 279 254 213 186 168 167
166 156 159 165 166 172 161 157 167 186 234 234 243 245 233 233 230 244 254 256 210 186 183 252 293 238 230 232 204 217 165 121 339 341 338 344 345 340 336 330 332 329 325 318 313 302 266 228 208 178 180 173 157 156
170 168 168 179 178 166 141 168 183 228 239 247 250 253 252 254 255 259 260 259 248 243 259 230 239 232 230 253 284 290 288 290 314 318 317 324 335 338 334 333 331 334 327 326 316 293 241 195 177 179 161 166 162 163
163 168 175 180 187 166 146 159 197 241 250 245 248 246 239 248 266 267 266 251 244 214 212 222 235 237 236 246 256 269 276 281 287 307 303 308 317 326 328 330 332 337 326 325 311 271 205 187 176 165 171 165 164 165
159 163 164 166 180 180 182 179 218 235 263 253 278 249 256 254 253 253 254 236 211 222 233 235 240 244 246 246 254 256 264 270 273 278 284 293 301 308 314 321 327 332 320 305 263 245 212 163 157 163 169 164 168 160
141 177 162 179 145 189 246 214 233 271 252 263 276 242 250 243 245 240 239 211 237 238 237 244 246 246 246 248 257 261 259 264 269 274 277 284 290 300 305 312 320 324 305 289 263 210 152 148 153 158 170 177 167 164
151 163 152 169 170 202 244 224 228 230 247 236 237 243 238 236 234 237 226 229 244 244 240 246 253 252 245 252 258 259 259 257 263 266 270 270 287 291 295 302 314 308 281 255 227 181 152 155 167 177 181 171 174 170
134 165 153 169 193 241 219 224 226 242 243 244 235 250 247 232 235 229 246 252 256 257 246 246 246 245 248 249 248 247 250 250 255 261 263 272 281 283 291 291 308 293 240 193 163 164 165 173 172 180 177 179 177 174
146 181 171 199 205 225 225 228 216 224 250 224 238 255 245 215 233 255 267 276 278 272 258 247 244 240 238 243 244 251 253 242 248 257 262 268 275 280 273 284 283 225 190 194 176 182 180 204 202 186 184 185 182 178
223 201 198 202 207 213 215 245 226 228 235 245 240 250 256 243 239 253 256 288 305 307 320 292 261 249 242 240 240 243 243 248 252 257 259 257 268 266 275 262 260 234 208 184 189 211 191 200 205 194 190 187 185 186
251 231 221 221 227 236 263 258 264 265 260 254 244 243 238 238 236 257 309 329 321 310 287 295 301 275 250 245 245 247 248 243 243 250 256 266 262 256 253 254 250 226 189 176 199 224 239 242 214 195 192 188 187 186
245 256 224 202 217 234 257 271 261 239 230 250 261 251 270 264 266 282 309 329 324 326 296 284 314 320 242 234 232 225 229 234 238 242 249 251 253 252 230 213 224 192 188 209 215 243 238 204 207 199 194 191 186 188
230 234 221 260 247 240 232 229 242 253 269 252 261 252 268 265 284 303 324 334 337 318 291 279 332 318 169 166 167 167 180 202 212 214 230 239 239 226 217 217 204 183 183 194 218 198 210 195 197 195 188 185 184 175
246 218 226 252 245 242 240 245 268 284 291 287 278 284 308 298 326 345 340 344 354 330 237 216 239 237 190 179 171 169 186 201 213 230 242 237 232 206 184 167 181 180 189 204 169 155 163 173 176 176 178 178 179 180
243 205 229 234 250 258 283 290 289 298 298 300 311 301 313 314 319 347 1 14 33 91 109 145 163 162 171 167 167 167 137 132 166 145 130 130 135 145 156 156 143 138 138 161 188 177 173 169 168 171 177 182 178 166
209 211 236 253 262 292 300 288 288 283 298 322 308 344 343 325 335 358 20 23 29 50 77 95 121 144 159 158 170 168 143 134 128 122 116 117 118 125 135 151 166 174 171 165 165 164 163 165 166 171 169 174 169 168
217 236 241 278 273 277 293 287 284 325 329 340 343 6 6 353 352 357 19 26 27 46 77 96 131 140 150 152 149 141 142 138 122 103 117 121 118 117 120 126 132 138 143 145 146 148 153 157 157 158 161 168 174 180